Preston, Minnesota, United States (55965)
Lat: 43.67N, Lon: 92.08W
Wx Zone: MNZ095
Local Info
Past Weather Observations for Today

NOTE: This archive is for the closest National Weather Service station to Preston. Information may differ from the station used for current weather conditions.

Click here for Long-term Archive

Time Weather Temperature Dewpoint Humidity Pressure Winds Precip Visibility
09:15
Overcast
Fog And Mist
25°F / -4°C 21°F / -6°C 86% 30.15 in
(1021 mb)
SW 8.1 mph
(SW 13 kph)
- 5SM
08:55
Overcast
Fog And Mist
25°F / -4°C 21°F / -6°C 86% 30.15 in
(1021 mb)
SW 6.9 mph
(SW 11 kph)
- 5SM
08:35
Overcast
Fog And Mist
25°F / -4°C 21°F / -6°C 86% 30.15 in
(1021 mb)
SW 5.8 mph
(SW 9 kph)
- 5SM
08:15
Overcast
Fog And Mist
25°F / -4°C 23°F / -5°C 93% 30.15 in
(1021 mb)
SSW 10.4 mph
(SSW 17 kph)
- 5SM
07:55
Overcast
Fog And Mist
25°F / -4°C 23°F / -5°C 93% 30.15 in
(1021 mb)
SSW 9.2 mph
(SSW 15 kph)
- 5SM
07:35
Overcast
Fog And Mist
25°F / -4°C 23°F / -5°C 93% 30.15 in
(1021 mb)
SSW 5.8 mph
(SSW 9 kph)
- 5SM
07:15
Overcast
Fog And Mist
25°F / -4°C 23°F / -5°C 93% 30.15 in
(1021 mb)
SSW 9.2 mph
(SSW 15 kph)
- 5SM
06:55
Overcast
25°F / -4°C 23°F / -5°C 93% 30.15 in
(1021 mb)
SSW 8.1 mph
(SSW 13 kph)
- 7SM
06:35
Overcast
Fog And Mist
25°F / -4°C 23°F / -5°C 93% 30.15 in
(1021 mb)
SSW 8.1 mph
(SSW 13 kph)
- 5SM
06:15
Overcast
Fog And Mist
25°F / -4°C 23°F / -5°C 93% 30.15 in
(1021 mb)
SSW 6.9 mph
(SSW 11 kph)
- 5SM
05:55
Overcast
Fog And Mist
25°F / -4°C 23°F / -5°C 93% 30.18 in
(1022 mb)
W 10.4 mph
(W 17 kph)
- 5SM
05:35
Overcast
Fog And Mist
25°F / -4°C 23°F / -5°C 93% 30.15 in
(1021 mb)
SSW 9.2 mph
(SSW 15 kph)
- 5SM
05:14
Overcast
Fog And Mist
25°F / -4°C 23°F / -5°C 93% 30.18 in
(1022 mb)
W 10.4 mph
(W 17 kph)
- 5SM
04:55
Overcast
Fog And Mist
25°F / -4°C 23°F / -5°C 93% 30.18 in
(1022 mb)
W 10.4 mph
(W 17 kph)
- 5SM
04:35
Overcast
Fog And Mist
25°F / -4°C 23°F / -5°C 93% 30.18 in
(1022 mb)
SSW 8.1 mph
(SSW 13 kph)
- 4SM
04:15
Overcast
Fog And Mist
25°F / -4°C 23°F / -5°C 93% 30.18 in
(1022 mb)
SSW 8.1 mph
(SSW 13 kph)
- 2 1/2SM
03:55
Overcast
Fog And Mist
25°F / -4°C 23°F / -5°C 93% 30.15 in
(1021 mb)
SSW 9.2 mph
(SSW 15 kph)
- 2SM
03:35
Overcast
Fog And Mist
25°F / -4°C 23°F / -5°C 93% 30.18 in
(1022 mb)
SSW 9.2 mph
(SSW 15 kph)
- 2SM
03:15
Overcast
Fog And Mist
25°F / -4°C 23°F / -5°C 93% 30.18 in
(1022 mb)
SSW 8.1 mph
(SSW 13 kph)
- 1 1/2SM
02:55
Overcast
Fog And Mist
25°F / -4°C 23°F / -5°C 93% 30.18 in
(1022 mb)
SSW 6.9 mph
(SSW 11 kph)
- 1 1/2SM
02:35
Overcast
Fog And Mist
25°F / -4°C 23°F / -5°C 93% 30.18 in
(1022 mb)
SSW 9.2 mph
(SSW 15 kph)
- 1 1/2SM
02:15
Overcast
Light Snow
25°F / -4°C 23°F / -5°C 93% 30.18 in
(1022 mb)
SW 6.9 mph
(SW 11 kph)
- 2SM
01:55
Overcast
Fog And Mist
25°F / -4°C 23°F / -5°C 93% 30.18 in
(1022 mb)
SW 8.1 mph
(SW 13 kph)
- 2 1/2SM
01:35
Overcast
Light Snow
23°F / -5°C 23°F / -5°C 100% 30.18 in
(1022 mb)
SW 8.1 mph
(SW 13 kph)
- 3SM
01:15
Overcast
Fog And Mist
23°F / -5°C 23°F / -5°C 100% 30.18 in
(1022 mb)
SW 8.1 mph
(SW 13 kph)
- 4SM
00:55
Overcast
Fog And Mist
23°F / -5°C 21°F / -6°C 93% 30.18 in
(1022 mb)
SW 10.4 mph
(SW 17 kph)
- 4SM
00:35
Overcast
Fog And Mist
23°F / -5°C 21°F / -6°C 93% 30.21 in
(1023 mb)
SW 11.5 mph
(SW 19 kph)
- 4SM
00:15
Overcast
Fog And Mist
23°F / -5°C 21°F / -6°C 93% 30.21 in
(1023 mb)
SW 11.5 mph
(SW 19 kph)
- 5SM
Time Weather Temperature Dewpoint Humidity Pressure Winds Precip Visibility


Weather for websites

WeatherForYou.com, LLC is not responsible for any damages or problems caused by this service. Current weather conditions are obtained from the closest station including government and personal stations which may have varying degrees of accuracy. Weather forecasts are derived from the NOAA NDFD. Like all things, this site belongs to Jesus Christ... He just trusts us to maintain it. If you have any questions or comments email webmaster@weatherforyou.com

Copyright © 2016, WeatherForYou.com LLC. All rights reserved.